Hourly Data Report for October 05, 2016

All times are specified in Local Standard Time (LST). Add 1 hour to adjust for Daylight Saving Time where and when it is observed.

MONCTON INTL A
NEW BRUNSWICK

46°06'44.000" N
64°40'43.000" W
70.70 m
8103201
71705
YQM

Download Data

Hourly Data (October 2016)
Hourly Data Report for October 5, 2016
Temp Definition
°C
Dew Point Temp Definition
°C
Rel Hum Definition
%
Wind Dir Definition
10's deg

Wind Spd Definition
km/h
Visibility Definition
km
Stn Press Definition
kPa
Hmdx Definition


Wind Chill Definition


Weather Definition


TIME
00:00 Legend Double Dagger 3.4 2.1 91 21 13 24.1 101.96     LegendNANA
01:00 Legend Double Dagger 2.6 1.6 93 22 10 24.1 102.00     LegendNANA
02:00 Legend Double Dagger 1.9 1.0 94 23 10 24.1 102.00     Clear
03:00 Legend Double Dagger 2.0 0.8 92 23 13 24.1 101.93     LegendNANA
04:00 Legend Double Dagger 1.6 0.4 92 22 14 24.1 101.88     LegendNANA
05:00 Legend Double Dagger 0.9 -0.1 93 21 15 24.1 101.85     Clear
06:00 Legend Double Dagger 0.9 -0.3 92 22 16 24.1 101.85     LegendNANA
07:00 Legend Double Dagger 2.2 0.6 89 23 13 24.1 101.91     LegendNANA
08:00 Legend Double Dagger 5.0 1.7 79 23 16 24.1 101.93     Clear
09:00 Legend Double Dagger 8.6 3.5 70 22 18 24.1 101.93     LegendNANA
10:00 Legend Double Dagger 11.8 5.7 66 21 18 24.1 101.90     LegendNANA
11:00 Legend Double Dagger 14.8 7.7 62 21 16 24.1 101.84     Clear
12:00 Legend Double Dagger 17.4 9.6 60 23 19 24.1 101.75     LegendNANA
13:00 Legend Double Dagger 18.8 9.4 54 23 20 24.1 101.68     LegendNANA
14:00 Legend Double Dagger 19.3 9.0 51 22 22 24.1 101.61     Clear
15:00 Legend Double Dagger 19.9 9.3 50 23 17 24.1 101.55     LegendNANA
16:00 Legend Double Dagger 19.7 7.9 46 27 17 24.1 101.50     LegendNANA
17:00 Legend Double Dagger 18.2 7.7 50 24 15 24.1 101.48     Clear
18:00 Legend Double Dagger 15.5 7.4 58 22 11 24.1 101.49     LegendNANA
19:00 Legend Double Dagger 14.2 7.6 64 23 12 24.1 101.50     LegendNANA
20:00 Legend Double Dagger 11.0 7.3 78 20 17 24.1 101.51     Clear
21:00 Legend Double Dagger 10.5 7.8 83 23 16 24.1 101.54     LegendNANA
22:00 Legend Double Dagger 9.6 8.1 90 23 15 24.1 101.56     LegendNANA
23:00 Legend Double Dagger 8.3 7.4 94 24 14 24.1 101.53     Clear

Notes on Data Quality.

Legend

  • E = Estimated
  • M = Missing
  • NA = Not Available
  • ‡ = Partner data that is not subject to review by the National Climate Archives
Date modified: